| time (UTC) | temp C | wind direction | speed KPH | gust KPH | rain 1hr cm | rain 24hr cm | rain mn cm | humidity % | barometer mb |
| 20260902163522 | 20 | 294 | 4.8 | 9.7 | 0.00 | 0.00 | 0.00 | 64 | 1019.4 |
| 20260902163020 | 20 | 288 | 3.2 | 9.7 | 0.00 | 0.00 | 0.00 | 64 | 1019.4 |
| 20260902162518 | 20 | 299 | 4.8 | 14.5 | 0.00 | 0.00 | 0.00 | 64 | 1019.2 |
| 20260902162049 | 20 | 280 | 3.2 | 4.8 | 0.00 | 0.00 | 0.00 | 63 | 1019.2 |
| 20260902162016 | 20 | 280 | 3.2 | 4.8 | 0.00 | 0.00 | 0.00 | 63 | 1019.2 |
| 20260902161535 | 21 | 268 | 3.2 | 4.8 | 0.00 | 0.00 | 0.00 | 63 | 1019.1 |
| 20260902161033 | 21 | 283 | 3.2 | 9.7 | 0.00 | 0.00 | 0.00 | 63 | 1019.2 |
| 20260902160531 | 21 | 264 | 3.2 | 9.7 | 0.00 | 0.00 | 0.00 | 62 | 1019.3 |
| 20260902160029 | 21 | 284 | 4.8 | 9.7 | 0.00 | 0.00 | 0.00 | 62 | 1019.4 |
| 20260902155527 | 21 | 288 | 3.2 | 9.7 | 0.00 | 0.00 | 0.00 | 62 | 1019.4 |
| 20260902155025 | 21 | 284 | 3.2 | 6.4 | 0.00 | 0.00 | 0.00 | 62 | 1019.4 |
| 20260902154524 | 21 | 277 | 3.2 | 6.4 | 0.00 | 0.00 | 0.00 | 61 | 1019.4 |
| 20260902154021 | 21 | 281 | 3.2 | 11.3 | 0.00 | 0.00 | 0.00 | 61 | 1019.5 |
| 20260902153520 | 21 | 302 | 4.8 | 11.3 | 0.00 | 0.00 | 0.00 | 61 | 1019.6 |
| 20260902153049 | 21 | 288 | 6.4 | 14.5 | 0.00 | 0.00 | 0.00 | 60 | 1019.6 |
| 20260902153018 | 21 | 288 | 6.4 | 14.5 | 0.00 | 0.00 | 0.00 | 60 | 1019.6 |
| 20260902152517 | 21 | 292 | 6.4 | 12.9 | 0.00 | 0.00 | 0.00 | 61 | 1019.6 |
| 20260902152034 | 21 | 296 | 6.4 | 12.9 | 0.00 | 0.00 | 0.00 | 61 | 1019.6 |
| 20260902151532 | 21 | 289 | 4.8 | 12.9 | 0.00 | 0.00 | 0.00 | 62 | 1019.6 |
| 20260902151031 | 20 | 297 | 8.0 | 14.5 | 0.00 | 0.00 | 0.00 | 61 | 1019.6 |
| 20260902150529 | 20 | 299 | 6.4 | 16.1 | 0.00 | 0.00 | 0.00 | 62 | 1019.7 |
| 20260902150027 | 20 | 286 | 4.8 | 12.9 | 0.00 | 0.00 | 0.00 | 62 | 1019.7 |
| 20260902145525 | 20 | 283 | 3.2 | 9.7 | 0.00 | 0.00 | 0.00 | 61 | 1019.8 |
| 20260902145023 | 20 | 291 | 6.4 | 14.5 | 0.00 | 0.00 | 0.00 | 61 | 1019.8 |
| 20260902144521 | 20 | 299 | 6.4 | 14.5 | 0.00 | 0.00 | 0.00 | 60 | 1019.9 |
| 20260902144020 | 20 | 280 | 8.0 | 16.1 | 0.00 | 0.00 | 0.00 | 61 | 1019.8 |
| 20260902143518 | 20 | 278 | 9.7 | 22.5 | 0.00 | 0.00 | 0.00 | 63 | 1019.9 |
| 20260902143016 | 20 | 290 | 6.4 | 17.7 | 0.00 | 0.00 | 0.00 | 64 | 1019.7 |
| 20260902142535 | 20 | 301 | 3.2 | 11.3 | 0.00 | 0.00 | 0.00 | 65 | 1019.7 |
| 20260902142032 | 20 | 294 | 6.4 | 12.9 | 0.00 | 0.00 | 0.00 | 65 | 1019.6 |
| 20260902141530 | 20 | 309 | 3.2 | 4.8 | 0.00 | 0.00 | 0.00 | 65 | 1019.7 |
| 20260902141028 | 20 | 288 | 3.2 | 4.8 | 0.00 | 0.00 | 0.00 | 66 | 1019.7 |
| 20260902140526 | 20 | 282 | 4.8 | 9.7 | 0.00 | 0.00 | 0.00 | 65 | 1019.8 |
| 20260902140025 | 20 | 308 | 3.2 | 6.4 | 0.00 | 0.00 | 0.00 | 63 | 1019.6 |
| 20260902135523 | 20 | 331 | 3.2 | 6.4 | 0.00 | 0.00 | 0.00 | 63 | 1019.7 |
| 20260902135021 | 20 | 324 | 3.2 | 4.8 | 0.00 | 0.00 | 0.00 | 63 | 1019.6 |
| 20260902134519 | 20 | 42 | 1.6 | 3.2 | 0.00 | 0.00 | 0.00 | 63 | 1019.7 |
| 20260902134017 | 20 | 9 | 1.6 | 3.2 | 0.00 | 0.00 | 0.00 | 63 | 1019.7 |
| 20260902133535 | 20 | 329 | 1.6 | 3.2 | 0.00 | 0.00 | 0.00 | 62 | 1019.7 |
| 20260902133034 | 20 | 354 | 4.8 | 11.3 | 0.00 | 0.00 | 0.00 | 62 | 1019.7 |
| 20260902132532 | 20 | 353 | 4.8 | 11.3 | 0.00 | 0.00 | 0.00 | 62 | 1019.8 |
| 20260902132030 | 21 | 1 | 4.8 | 14.5 | 0.00 | 0.00 | 0.00 | 62 | 1019.7 |
| 20260902131528 | 21 | 10 | 4.8 | 16.1 | 0.00 | 0.00 | 0.00 | 61 | 1019.7 |
| 20260902131026 | 21 | 323 | 8.0 | 16.1 | 0.00 | 0.00 | 0.00 | 60 | 1019.8 |
| 20260902130524 | 21 | 286 | 9.7 | 25.7 | 0.00 | 0.00 | 0.00 | 62 | 1019.7 |
| 20260902130023 | 21 | 278 | 3.2 | 12.9 | 0.00 | 0.00 | 0.00 | 64 | 1019.8 |
| 20260902125520 | 21 | 292 | 3.2 | 9.7 | 0.00 | 0.00 | 0.00 | 64 | 1019.8 |
| 20260902125019 | 21 | 286 | 4.8 | 12.9 | 0.00 | 0.00 | 0.00 | 63 | 1019.8 |
| 20260902124517 | 21 | 281 | 4.8 | 9.7 | 0.00 | 0.00 | 0.00 | 63 | 1019.8 |
| 20260902124035 | 21 | 276 | 4.8 | 11.3 | 0.00 | 0.00 | 0.00 | 62 | 1019.8 |
| 20260902123533 | 21 | 276 | 4.8 | 12.9 | 0.00 | 0.00 | 0.00 | 63 | 1019.9 |
| 20260902123031 | 21 | 293 | 6.4 | 14.5 | 0.00 | 0.00 | 0.00 | 63 | 1019.9 |
| 20260902122530 | 21 | 270 | 8.0 | 16.1 | 0.00 | 0.00 | 0.00 | 62 | 1020.0 |
| 20260902122028 | 21 | 243 | 9.7 | 20.9 | 0.00 | 0.00 | 0.00 | 62 | 1020.0 |
| 20260902121526 | 21 | 272 | 9.7 | 24.1 | 0.00 | 0.00 | 0.00 | 62 | 1020.2 |
| 20260902121024 | 21 | 231 | 8.0 | 17.7 | 0.00 | 0.00 | 0.00 | 63 | 1020.2 |
| 20260902120522 | 21 | 242 | 8.0 | 16.1 | 0.00 | 0.00 | 0.00 | 65 | 1020.3 |
| 20260902120020 | 21 | 228 | 8.0 | 17.7 | 0.00 | 0.00 | 0.00 | 65 | 1020.3 |
| 20260902115519 | 21 | 230 | 9.7 | 20.9 | 0.00 | 0.00 | 0.00 | 65 | 1020.3 |
| 20260902115049 | 21 | 242 | 12.9 | 25.7 | 0.00 | 0.00 | 0.00 | 64 | 1020.4 |
| 20260902115017 | 21 | 242 | 12.9 | 25.7 | 0.00 | 0.00 | 0.00 | 64 | 1020.4 |
| 20260902114535 | 21 | 274 | 9.7 | 22.5 | 0.00 | 0.00 | 0.00 | 62 | 1020.4 |
| 20260902114033 | 20 | 288 | 11.3 | 17.7 | 0.00 | 0.00 | 0.00 | 63 | 1020.4 |
| 20260902113532 | 20 | 276 | 9.7 | 16.1 | 0.00 | 0.00 | 0.00 | 66 | 1020.5 |
| 20260902113030 | 20 | 275 | 8.0 | 17.7 | 0.00 | 0.00 | 0.00 | 68 | 1020.5 |
| 20260902112528 | 20 | 273 | 6.4 | 12.9 | 0.00 | 0.00 | 0.00 | 69 | 1020.5 |
| 20260902112026 | 20 | 268 | 6.4 | 11.3 | 0.00 | 0.00 | 0.00 | 69 | 1020.5 |
| 20260902111524 | 20 | 277 | 8.0 | 14.5 | 0.00 | 0.00 | 0.00 | 69 | 1020.4 |
| 20260902111022 | 20 | 279 | 3.2 | 14.5 | 0.00 | 0.00 | 0.00 | 69 | 1020.5 |
| 20260902110521 | 20 | 291 | 4.8 | 14.5 | 0.00 | 0.00 | 0.00 | 69 | 1020.5 |
| 20260902110019 | 20 | 295 | 4.8 | 11.3 | 0.00 | 0.00 | 0.00 | 67 | 1020.6 |
| 20260902105517 | 20 | 298 | 9.7 | 16.1 | 0.00 | 0.00 | 0.00 | 64 | 1020.6 |
| 20260902105035 | 21 | 286 | 12.9 | 27.4 | 0.00 | 0.00 | 0.00 | 61 | 1020.6 |
| 20260902104534 | 21 | 276 | 12.9 | 22.5 | 0.00 | 0.00 | 0.00 | 60 | 1020.5 |
| 20260902104031 | 21 | 269 | 11.3 | 22.5 | 0.00 | 0.00 | 0.00 | 60 | 1020.5 |
| 20260902103530 | 21 | 281 | 11.3 | 22.5 | 0.00 | 0.00 | 0.00 | 60 | 1020.4 |
| 20260902103028 | 21 | 286 | 8.0 | 17.7 | 0.00 | 0.00 | 0.00 | 61 | 1020.5 |
| 20260902102526 | 21 | 280 | 8.0 | 22.5 | 0.00 | 0.00 | 0.00 | 61 | 1020.5 |
| 20260902102024 | 21 | 284 | 4.8 | 12.9 | 0.00 | 0.00 | 0.00 | 61 | 1020.5 |
| 20260902101522 | 21 | 278 | 9.7 | 20.9 | 0.00 | 0.00 | 0.00 | 60 | 1020.5 |
| 20260902101021 | 21 | 301 | 11.3 | 17.7 | 0.00 | 0.00 | 0.00 | 60 | 1020.4 |
| 20260902100519 | 21 | 282 | 11.3 | 24.1 | 0.00 | 0.00 | 0.00 | 60 | 1020.5 |
| 20260902100051 | 21 | 286 | 9.7 | 20.9 | 0.00 | 0.00 | 0.00 | 60 | 1020.6 |
| 20260902100017 | 21 | 286 | 9.7 | 20.9 | 0.00 | 0.00 | 0.00 | 60 | 1020.6 |
| 20260902095535 | 21 | 281 | 9.7 | 25.7 | 0.00 | 0.00 | 0.00 | 60 | 1020.5 |
| 20260902095033 | 21 | 292 | 12.9 | 24.1 | 0.00 | 0.00 | 0.00 | 60 | 1020.5 |
| 20260902094531 | 21 | 282 | 11.3 | 17.7 | 0.00 | 0.00 | 0.00 | 61 | 1020.6 |
| 20260902094029 | 21 | 279 | 4.8 | 17.7 | 0.00 | 0.00 | 0.00 | 61 | 1020.6 |
| 20260902093528 | 21 | 296 | 8.0 | 16.1 | 0.00 | 0.00 | 0.00 | 61 | 1020.6 |
| 20260902093026 | 21 | 267 | 9.7 | 17.7 | 0.00 | 0.00 | 0.00 | 61 | 1020.7 |
| 20260902092524 | 20 | 286 | 8.0 | 17.7 | 0.00 | 0.00 | 0.00 | 63 | 1020.8 |
| 20260902092022 | 20 | 262 | 8.0 | 16.1 | 0.00 | 0.00 | 0.00 | 64 | 1020.8 |
| 20260902091520 | 20 | 275 | 9.7 | 17.7 | 0.00 | 0.00 | 0.00 | 62 | 1020.8 |
| 20260902091018 | 20 | 298 | 9.7 | 17.7 | 0.00 | 0.00 | 0.00 | 63 | 1020.7 |
| 20260902090517 | 20 | 276 | 8.0 | 22.5 | 0.00 | 0.00 | 0.00 | 65 | 1020.8 |
| 20260902090035 | 20 | 288 | 6.4 | 12.9 | 0.00 | 0.00 | 0.00 | 64 | 1020.8 |
| 20260902085534 | 20 | 269 | 9.7 | 24.1 | 0.00 | 0.00 | 0.00 | 64 | 1020.8 |
| 20260902085031 | 20 | 284 | 9.7 | 24.1 | 0.00 | 0.00 | 0.00 | 65 | 1020.8 |
| 20260902084530 | 20 | 282 | 9.7 | 17.7 | 0.00 | 0.00 | 0.00 | 64 | 1020.8 |
| 20260902084028 | 20 | 281 | 12.9 | 20.9 | 0.00 | 0.00 | 0.00 | 66 | 1020.9 |
| 20260902083526 | 20 | 280 | 8.0 | 20.9 | 0.00 | 0.00 | 0.00 | 66 | 1020.7 |
| 20260902083024 | 19 | 292 | 9.7 | 17.7 | 0.00 | 0.00 | 0.00 | 66 | 1020.7 |
| 20260902082522 | 19 | 286 | 6.4 | 17.7 | 0.00 | 0.00 | 0.00 | 68 | 1020.8 |
| 20260902082021 | 18 | 263 | 8.0 | 16.1 | 0.00 | 0.00 | 0.00 | 70 | 1020.7 |
| 20260902081519 | 18 | 278 | 6.4 | 14.5 | 0.00 | 0.00 | 0.00 | 70 | 1020.8 |
| 20260902081048 | 18 | 283 | 6.4 | 12.9 | 0.00 | 0.00 | 0.00 | 72 | 1020.8 |
| 20260902081017 | 18 | 283 | 6.4 | 12.9 | 0.00 | 0.00 | 0.00 | 72 | 1020.8 |
| 20260902080535 | 18 | 279 | 4.8 | 12.9 | 0.00 | 0.00 | 0.00 | 72 | 1020.8 |
| 20260902080033 | 18 | 275 | 4.8 | 12.9 | 0.00 | 0.00 | 0.00 | 73 | 1020.7 |
| 20260902075531 | 17 | 257 | 6.4 | 11.3 | 0.00 | 0.00 | 0.00 | 73 | 1020.7 |
| 20260902075029 | 17 | 282 | 6.4 | 14.5 | 0.00 | 0.00 | 0.00 | 74 | 1020.7 |
| 20260902074527 | 17 | 292 | 4.8 | 12.9 | 0.00 | 0.00 | 0.00 | 74 | 1020.7 |
| 20260902074026 | 17 | 293 | 4.8 | 11.3 | 0.00 | 0.00 | 0.00 | 74 | 1020.8 |
| 20260902073524 | 17 | 265 | 1.6 | 4.8 | 0.00 | 0.00 | 0.00 | 74 | 1020.7 |
| 20260902073022 | 17 | 274 | 4.8 | 12.9 | 0.00 | 0.00 | 0.00 | 73 | 1020.8 |
| 20260902072520 | 17 | 280 | 8.0 | 14.5 | 0.00 | 0.00 | 0.00 | 73 | 1020.8 |
| 20260902072019 | 17 | 289 | 6.4 | 14.5 | 0.00 | 0.00 | 0.00 | 74 | 1020.6 |
| 20260902071517 | 16 | 285 | 4.8 | 11.3 | 0.00 | 0.00 | 0.00 | 74 | 1020.5 |
| 20260902071035 | 16 | 287 | 4.8 | 11.3 | 0.00 | 0.00 | 0.00 | 75 | 1020.5 |
| 20260902070533 | 16 | 272 | 3.2 | 9.7 | 0.00 | 0.00 | 0.00 | 75 | 1020.4 |
| 20260902070032 | 16 | 271 | 3.2 | 11.3 | 0.00 | 0.00 | 0.00 | 75 | 1020.3 |
| 20260902065529 | 16 | 285 | 4.8 | 11.3 | 0.00 | 0.00 | 0.00 | 75 | 1020.3 |
| 20260902065027 | 16 | 287 | 3.2 | 11.3 | 0.00 | 0.00 | 0.00 | 75 | 1020.3 |
| 20260902064526 | 16 | 283 | 4.8 | 14.5 | 0.00 | 0.00 | 0.00 | 75 | 1020.3 |
| 20260902064024 | 16 | 281 | 6.4 | 14.5 | 0.00 | 0.00 | 0.00 | 75 | 1020.4 |
| 20260902063522 | 16 | 283 | 6.4 | 16.1 | 0.00 | 0.00 | 0.00 | 76 | 1020.4 |
| 20260902063020 | 16 | 292 | 4.8 | 11.3 | 0.00 | 0.00 | 0.00 | 76 | 1020.3 |
| 20260902062519 | 15 | 280 | 1.6 | 4.8 | 0.00 | 0.00 | 0.00 | 77 | 1020.2 |
| 20260902062049 | 15 | 255 | 3.2 | 6.4 | 0.00 | 0.00 | 0.00 | 77 | 1020.3 |
| 20260902062016 | 15 | 255 | 3.2 | 6.4 | 0.00 | 0.00 | 0.00 | 77 | 1020.3 |
| 20260902061535 | 15 | 286 | 3.2 | 11.3 | 0.00 | 0.00 | 0.00 | 78 | 1020.2 |
| 20260902061033 | 15 | 273 | 4.8 | 11.3 | 0.00 | 0.00 | 0.00 | 78 | 1020.2 |
| 20260902060531 | 15 | 262 | 3.2 | 12.9 | 0.00 | 0.00 | 0.00 | 78 | 1020.1 |
| 20260902060029 | 14 | 242 | 3.2 | 9.7 | 0.00 | 0.00 | 0.00 | 78 | 1020.2 |
| 20260902055527 | 14 | 264 | 4.8 | 9.7 | 0.00 | 0.00 | 0.00 | 79 | 1020.2 |
| 20260902055026 | 14 | 249 | 4.8 | 9.7 | 0.00 | 0.00 | 0.00 | 79 | 1020.3 |
| 20260902054523 | 14 | 261 | 3.2 | 9.7 | 0.00 | 0.00 | 0.00 | 79 | 1020.2 |
| 20260902054105 | 13 | 252 | 3.2 | 6.4 | 0.00 | 0.00 | 0.00 | 79 | 1020.1 |
| 20260902054021 | 13 | 252 | 3.2 | 6.4 | 0.00 | 0.00 | 0.00 | 79 | 1020.1 |
| 20260902053520 | 13 | 240 | 4.8 | 11.3 | 0.00 | 0.00 | 0.00 | 79 | 1020.2 |
| 20260902053109 | 13 | 250 | 4.8 | 9.7 | 0.00 | 0.00 | 0.00 | 79 | 1020.2 |
| 20260902053018 | 13 | 250 | 4.8 | 9.7 | 0.00 | 0.00 | 0.00 | 79 | 1020.2 |
| 20260902052516 | 13 | 232 | 1.6 | 6.4 | 0.00 | 0.00 | 0.00 | 79 | 1020.1 |
| 20260902052034 | 13 | 240 | 1.6 | 6.4 | 0.00 | 0.00 | 0.00 | 79 | 1020.1 |
| 20260902051533 | 13 | 280 | 3.2 | 9.7 | 0.00 | 0.00 | 0.00 | 79 | 1020.2 |
| 20260902051031 | 13 | 276 | 3.2 | 9.7 | 0.00 | 0.00 | 0.00 | 80 | 1020.3 |
| 20260902050529 | 13 | 278 | 3.2 | 11.3 | 0.00 | 0.00 | 0.00 | 80 | 1020.2 |
| 20260902050027 | 13 | 260 | 0.0 | 4.8 | 0.00 | 0.00 | 0.00 | 79 | 1020.1 |
| 20260902045527 | 13 | 233 | 1.6 | 4.8 | 0.00 | 0.00 | 0.00 | 79 | 1020.0 |
| 20260902045023 | 13 | 244 | 0.0 | 3.2 | 0.00 | 0.00 | 0.00 | 79 | 1020.1 |
| 20260902044522 | 13 | 258 | 1.6 | 4.8 | 0.00 | 0.00 | 0.00 | 79 | 1019.9 |
| 20260902044019 | 13 | 252 | 0.0 | 3.2 | 0.00 | 0.00 | 0.00 | 79 | 1020.0 |
| 20260902043518 | 13 | 0.0 | 0.0 | 0.00 | 0.00 | 0.00 | 79 | 1019.8 | |
| 20260902043047 | 13 | 249 | 0.0 | 3.2 | 0.00 | 0.00 | 0.00 | 79 | 1019.8 |
| 20260902043016 | 13 | 249 | 0.0 | 3.2 | 0.00 | 0.00 | 0.00 | 79 | 1019.8 |
| 20260902042534 | 13 | 0.0 | 0.0 | 0.00 | 0.00 | 0.00 | 79 | 1019.8 | |
| 20260902042032 | 13 | 0.0 | 0.0 | 0.00 | 0.00 | 0.00 | 79 | 1019.8 | |
| 20260902041531 | 13 | 0.0 | 0.0 | 0.00 | 0.00 | 0.00 | 78 | 1019.8 | |
| 20260902041111 | 13 | 229 | 0.0 | 1.6 | 0.00 | 0.00 | 0.00 | 78 | 1019.8 |
| 20260902041028 | 13 | 229 | 0.0 | 1.6 | 0.00 | 0.00 | 0.00 | 78 | 1019.8 |
| 20260902040526 | 13 | 226 | 0.0 | 1.6 | 0.00 | 0.00 | 0.00 | 78 | 1019.8 |
| 20260902040058 | 13 | 252 | 0.0 | 3.2 | 0.00 | 0.00 | 0.00 | 78 | 1019.7 |
| 20260902040025 | 13 | 252 | 0.0 | 3.2 | 0.00 | 0.00 | 0.00 | 78 | 1019.7 |
| 20260902035522 | 13 | 263 | 0.0 | 3.2 | 0.00 | 0.00 | 0.00 | 78 | 1019.6 |
| 20260902035021 | 13 | 249 | 0.0 | 3.2 | 0.00 | 0.00 | 0.00 | 78 | 1019.6 |
| 20260902034519 | 13 | 247 | 1.6 | 6.4 | 0.00 | 0.00 | 0.00 | 78 | 1019.6 |
| 20260902034049 | 13 | 266 | 0.0 | 4.8 | 0.00 | 0.00 | 0.00 | 78 | 1019.7 |
| 20260902034017 | 13 | 266 | 0.0 | 4.8 | 0.00 | 0.00 | 0.00 | 78 | 1019.7 |
| 20260902033535 | 13 | 276 | 1.6 | 6.4 | 0.00 | 0.00 | 0.00 | 78 | 1019.7 |
| 20260902033033 | 13 | 248 | 0.0 | 3.2 | 0.00 | 0.00 | 0.00 | 78 | 1019.7 |
| 20260902032532 | 13 | 271 | 1.6 | 4.8 | 0.00 | 0.00 | 0.00 | 78 | 1019.8 |
| 20260902032029 | 13 | 0.0 | 0.0 | 0.00 | 0.00 | 0.00 | 77 | 1019.8 | |
| 20260902031527 | 13 | 232 | 0.0 | 4.8 | 0.00 | 0.00 | 0.00 | 77 | 1019.8 |
| 20260902031104 | 13 | 256 | 0.0 | 3.2 | 0.00 | 0.00 | 0.00 | 77 | 1019.8 |
| 20260902031025 | 13 | 256 | 0.0 | 3.2 | 0.00 | 0.00 | 0.00 | 77 | 1019.8 |
| 20260902030523 | 13 | 234 | 0.0 | 4.8 | 0.00 | 0.00 | 0.00 | 77 | 1019.7 |
| 20260902030021 | 13 | 265 | 0.0 | 4.8 | 0.00 | 0.00 | 0.00 | 77 | 1019.7 |
| 20260902025519 | 13 | 0.0 | 0.0 | 0.00 | 0.00 | 0.00 | 77 | 1019.8 | |
| 20260902025049 | 13 | 239 | 0.0 | 1.6 | 0.00 | 0.00 | 0.00 | 77 | 1019.7 |
| 20260902025018 | 13 | 239 | 0.0 | 1.6 | 0.00 | 0.00 | 0.00 | 77 | 1019.7 |
| 20260902024516 | 13 | 0.0 | 0.0 | 0.00 | 0.00 | 0.00 | 77 | 1019.8 | |
| 20260902024034 | 13 | 0.0 | 0.0 | 0.00 | 0.00 | 0.00 | 77 | 1019.8 | |
| 20260902023532 | 13 | 0.0 | 0.0 | 0.00 | 0.00 | 0.00 | 77 | 1019.8 | |
| 20260902023030 | 13 | 0.0 | 0.0 | 0.00 | 0.00 | 0.00 | 76 | 1019.8 | |
| 20260902022528 | 13 | 214 | 0.0 | 3.2 | 0.00 | 0.00 | 0.00 | 76 | 1019.8 |
| 20260902022027 | 13 | 0.0 | 0.0 | 0.00 | 0.00 | 0.00 | 76 | 1019.9 | |
| 20260902021525 | 13 | 0.0 | 0.0 | 0.00 | 0.00 | 0.00 | 76 | 1019.8 | |
| 20260902021023 | 14 | 0.0 | 0.0 | 0.00 | 0.00 | 0.00 | 76 | 1019.8 | |
| 20260902020521 | 14 | 0.0 | 0.0 | 0.00 | 0.00 | 0.00 | 76 | 1019.9 | |
| 20260902020019 | 14 | 0.0 | 0.0 | 0.00 | 0.00 | 0.00 | 76 | 1019.9 | |
| 20260902015518 | 14 | 242 | 0.0 | 3.2 | 0.00 | 0.00 | 0.00 | 76 | 1019.8 |
| 20260902015124 | 14 | 257 | 1.6 | 4.8 | 0.00 | 0.00 | 0.00 | 76 | 1019.8 |
| 20260902015036 | 14 | 257 | 1.6 | 4.8 | 0.00 | 0.00 | 0.00 | 76 | 1019.8 |
| 20260902014534 | 14 | 256 | 1.6 | 4.8 | 0.00 | 0.00 | 0.00 | 76 | 1019.9 |
| 20260902014117 | 14 | 255 | 3.2 | 6.4 | 0.00 | 0.00 | 0.00 | 76 | 1019.9 |
| 20260902014032 | 14 | 255 | 3.2 | 6.4 | 0.00 | 0.00 | 0.00 | 76 | 1019.9 |
| 20260902013530 | 14 | 248 | 3.2 | 9.7 | 0.00 | 0.00 | 0.00 | 76 | 1019.8 |
| 20260902013028 | 14 | 260 | 1.6 | 4.8 | 0.00 | 0.00 | 0.00 | 75 | 1019.9 |
| 20260902012526 | 14 | 276 | 1.6 | 6.4 | 0.00 | 0.00 | 0.00 | 75 | 1019.7 |
| 20260902012115 | 14 | 288 | 1.6 | 6.4 | 0.00 | 0.00 | 0.00 | 75 | 1019.8 |
| 20260902012024 | 14 | 288 | 1.6 | 6.4 | 0.00 | 0.00 | 0.00 | 75 | 1019.8 |
| 20260902011522 | 14 | 259 | 0.0 | 4.8 | 0.00 | 0.00 | 0.00 | 75 | 1019.8 |
| 20260902011021 | 14 | 0.0 | 0.0 | 0.00 | 0.00 | 0.00 | 75 | 1019.7 | |
| 20260902010519 | 14 | 264 | 0.0 | 3.2 | 0.00 | 0.00 | 0.00 | 75 | 1019.7 |
| 20260902010100 | 14 | 275 | 1.6 | 9.7 | 0.00 | 0.00 | 0.00 | 76 | 1019.7 |
| 20260902010017 | 14 | 275 | 1.6 | 9.7 | 0.00 | 0.00 | 0.00 | 76 | 1019.7 |
| 20260902005536 | 14 | 264 | 3.2 | 9.7 | 0.00 | 0.00 | 0.00 | 75 | 1019.7 |
| 20260902005033 | 14 | 270 | 1.6 | 4.8 | 0.00 | 0.00 | 0.00 | 75 | 1019.8 |
| 20260902004531 | 14 | 263 | 1.6 | 9.7 | 0.00 | 0.00 | 0.00 | 75 | 1019.7 |
| 20260902004030 | 14 | 256 | 3.2 | 4.8 | 0.00 | 0.00 | 0.00 | 75 | 1019.8 |
| 20260902003528 | 14 | 254 | 3.2 | 6.4 | 0.00 | 0.00 | 0.00 | 75 | 1019.7 |
| 20260902003025 | 15 | 253 | 0.0 | 3.2 | 0.00 | 0.00 | 0.00 | 75 | 1019.7 |
| 20260902002524 | 15 | 218 | 0.0 | 3.2 | 0.00 | 0.00 | 0.00 | 75 | 1019.7 |
| 20260902002022 | 15 | 233 | 0.0 | 3.2 | 0.00 | 0.00 | 0.00 | 75 | 1019.6 |
| 20260902001520 | 15 | 0.0 | 0.0 | 0.00 | 0.00 | 0.00 | 75 | 1019.6 | |
| 20260902001018 | 15 | 237 | 0.0 | 3.2 | 0.00 | 0.00 | 0.00 | 75 | 1019.7 |
| 20260902000516 | 15 | 262 | 0.0 | 3.2 | 0.00 | 0.00 | 0.00 | 75 | 1019.7 |
| 20260902000034 | 15 | 264 | 0.0 | 3.2 | 0.00 | 0.00 | 0.00 | 75 | 1019.7 |
| 20260901235532 | 15 | 251 | 1.6 | 4.8 | 0.00 | 0.00 | 0.00 | 75 | 1019.7 |
| 20260901235031 | 15 | 245 | 1.6 | 4.8 | 0.00 | 0.00 | 0.00 | 75 | 1019.7 |
| 20260901234529 | 15 | 244 | 1.6 | 3.2 | 0.00 | 0.00 | 0.00 | 75 | 1019.6 |
| 20260901234027 | 15 | 0.0 | 0.0 | 0.00 | 0.00 | 0.00 | 75 | 1019.6 | |
| 20260901233525 | 15 | 0.0 | 0.0 | 0.00 | 0.00 | 0.00 | 75 | 1019.6 | |
| 20260901233023 | 15 | 249 | 1.6 | 4.8 | 0.00 | 0.00 | 0.00 | 75 | 1019.6 |
| 20260901232521 | 15 | 245 | 1.6 | 6.4 | 0.00 | 0.00 | 0.00 | 75 | 1019.6 |
| 20260901232019 | 15 | 241 | 0.0 | 3.2 | 0.00 | 0.00 | 0.00 | 75 | 1019.5 |
| 20260901231517 | 15 | 0.0 | 0.0 | 0.00 | 0.00 | 0.00 | 75 | 1019.6 | |
| 20260901231048 | 15 | 256 | 0.0 | 3.2 | 0.00 | 0.00 | 0.00 | 75 | 1019.4 |
| 20260901231016 | 15 | 256 | 0.0 | 3.2 | 0.00 | 0.00 | 0.00 | 75 | 1019.4 |
| 20260901230534 | 15 | 299 | 1.6 | 9.7 | 0.00 | 0.00 | 0.00 | 75 | 1019.5 |
| 20260901230032 | 15 | 282 | 3.2 | 11.3 | 0.00 | 0.00 | 0.00 | 75 | 1019.5 |
| 20260901225530 | 15 | 287 | 4.8 | 14.5 | 0.00 | 0.00 | 0.00 | 75 | 1019.6 |
| 20260901225028 | 15 | 292 | 4.8 | 9.7 | 0.00 | 0.00 | 0.00 | 75 | 1019.5 |
| 20260901224526 | 15 | 283 | 4.8 | 11.3 | 0.00 | 0.00 | 0.00 | 75 | 1019.4 |
| 20260901224024 | 15 | 277 | 4.8 | 9.7 | 0.00 | 0.00 | 0.00 | 75 | 1019.5 |
| 20260901223522 | 15 | 284 | 3.2 | 9.7 | 0.00 | 0.00 | 0.00 | 75 | 1019.4 |
| 20260901223020 | 15 | 284 | 4.8 | 11.3 | 0.00 | 0.00 | 0.00 | 75 | 1019.5 |
| 20260901222519 | 15 | 284 | 4.8 | 14.5 | 0.00 | 0.00 | 0.00 | 75 | 1019.5 |
| 20260901222017 | 15 | 287 | 3.2 | 9.7 | 0.00 | 0.00 | 0.00 | 74 | 1019.5 |
| 20260901221535 | 15 | 285 | 3.2 | 9.7 | 0.00 | 0.00 | 0.00 | 74 | 1019.5 |
| 20260901221033 | 15 | 288 | 4.8 | 11.3 | 0.00 | 0.00 | 0.00 | 74 | 1019.5 |
| 20260901220531 | 15 | 288 | 3.2 | 9.7 | 0.00 | 0.00 | 0.00 | 74 | 1019.4 |
| 20260901220030 | 15 | 281 | 3.2 | 6.4 | 0.00 | 0.00 | 0.00 | 74 | 1019.4 |
| 20260901215527 | 15 | 279 | 3.2 | 6.4 | 0.00 | 0.00 | 0.00 | 74 | 1019.5 |
| 20260901215025 | 15 | 264 | 1.6 | 4.8 | 0.00 | 0.00 | 0.00 | 74 | 1019.5 |
| 20260901214523 | 15 | 261 | 1.6 | 6.4 | 0.00 | 0.00 | 0.00 | 74 | 1019.6 |
| 20260901214022 | 15 | 258 | 1.6 | 3.2 | 0.00 | 0.00 | 0.00 | 74 | 1019.5 |
| 20260901213520 | 15 | 258 | 1.6 | 6.4 | 0.00 | 0.00 | 0.00 | 74 | 1019.5 |
| 20260901213049 | 15 | 275 | 1.6 | 4.8 | 0.00 | 0.00 | 0.00 | 74 | 1019.4 |
| 20260901213018 | 15 | 275 | 1.6 | 4.8 | 0.00 | 0.00 | 0.00 | 74 | 1019.4 |
| 20260901212516 | 15 | 274 | 1.6 | 4.8 | 0.00 | 0.00 | 0.00 | 74 | 1019.5 |
| 20260901212034 | 15 | 260 | 1.6 | 4.8 | 0.00 | 0.00 | 0.00 | 73 | 1019.5 |
| 20260901211532 | 15 | 0.0 | 0.0 | 0.00 | 0.00 | 0.00 | 73 | 1019.5 | |
| 20260901211030 | 16 | 259 | 0.0 | 1.6 | 0.00 | 0.00 | 0.00 | 73 | 1019.5 |
| 20260901210528 | 16 | 278 | 1.6 | 6.4 | 0.00 | 0.00 | 0.00 | 73 | 1019.5 |
| 20260901210027 | 16 | 0.0 | 0.0 | 0.00 | 0.00 | 0.00 | 72 | 1019.6 | |
| 20260901205525 | 16 | 0.0 | 0.0 | 0.00 | 0.00 | 0.00 | 72 | 1019.5 | |
| 20260901205023 | 16 | 259 | 0.0 | 1.6 | 0.00 | 0.00 | 0.00 | 72 | 1019.5 |
| 20260901204521 | 16 | 252 | 0.0 | 1.6 | 0.00 | 0.00 | 0.00 | 72 | 1019.5 |
| 20260901204019 | 16 | 0.0 | 0.0 | 0.00 | 0.00 | 0.00 | 72 | 1019.5 | |
| 20260901203517 | 16 | 291 | 1.6 | 3.2 | 0.00 | 0.00 | 0.00 | 72 | 1019.4 |
| 20260901203016 | 16 | 284 | 3.2 | 4.8 | 0.00 | 0.00 | 0.00 | 71 | 1019.5 |
| 20260901202534 | 16 | 285 | 3.2 | 4.8 | 0.00 | 0.00 | 0.00 | 71 | 1019.5 |
| 20260901202032 | 16 | 286 | 1.6 | 4.8 | 0.00 | 0.00 | 0.00 | 71 | 1019.5 |
| 20260901201530 | 16 | 287 | 1.6 | 4.8 | 0.00 | 0.00 | 0.00 | 71 | 1019.4 |
| 20260901201028 | 16 | 287 | 1.6 | 4.8 | 0.00 | 0.00 | 0.00 | 70 | 1019.5 |
| 20260901200526 | 17 | 288 | 1.6 | 4.8 | 0.00 | 0.00 | 0.00 | 70 | 1019.4 |
| 20260901200024 | 17 | 293 | 3.2 | 3.2 | 0.00 | 0.00 | 0.00 | 70 | 1019.3 |
| 20260901195523 | 17 | 287 | 3.2 | 4.8 | 0.00 | 0.00 | 0.00 | 70 | 1019.5 |
| 20260901195020 | 17 | 288 | 3.2 | 4.8 | 0.00 | 0.00 | 0.00 | 70 | 1019.5 |
| 20260901194518 | 17 | 290 | 3.2 | 9.7 | 0.00 | 0.00 | 0.00 | 70 | 1019.5 |
| 20260901194048 | 17 | 293 | 3.2 | 4.8 | 0.00 | 0.00 | 0.00 | 70 | 1019.5 |
| 20260901194016 | 17 | 293 | 3.2 | 4.8 | 0.00 | 0.00 | 0.00 | 70 | 1019.5 |
| 20260901193535 | 17 | 261 | 1.6 | 6.4 | 0.00 | 0.00 | 0.00 | 69 | 1019.4 |
| 20260901193033 | 17 | 254 | 1.6 | 4.8 | 0.00 | 0.00 | 0.00 | 69 | 1019.5 |
| 20260901192531 | 17 | 258 | 1.6 | 3.2 | 0.00 | 0.00 | 0.00 | 69 | 1019.6 |
| 20260901192029 | 17 | 250 | 1.6 | 3.2 | 0.00 | 0.00 | 0.00 | 69 | 1019.5 |
| 20260901191527 | 17 | 251 | 1.6 | 3.2 | 0.00 | 0.00 | 0.00 | 69 | 1019.5 |
| 20260901191025 | 17 | 256 | 1.6 | 4.8 | 0.00 | 0.00 | 0.00 | 68 | 1019.4 |
| 20260901190523 | 17 | 256 | 1.6 | 4.8 | 0.00 | 0.00 | 0.00 | 68 | 1019.5 |
| 20260901190022 | 17 | 258 | 1.6 | 4.8 | 0.00 | 0.00 | 0.00 | 68 | 1019.5 |
| 20260901185520 | 17 | 286 | 0.0 | 3.2 | 0.00 | 0.00 | 0.00 | 68 | 1019.5 |
| 20260901185018 | 17 | 288 | 1.6 | 4.8 | 0.00 | 0.00 | 0.00 | 68 | 1019.4 |
| 20260901184516 | 17 | 290 | 3.2 | 4.8 | 0.00 | 0.00 | 0.00 | 68 | 1019.4 |
| 20260901184034 | 17 | 278 | 3.2 | 6.4 | 0.00 | 0.00 | 0.00 | 68 | 1019.3 |
| 20260901183532 | 18 | 290 | 3.2 | 6.4 | 0.00 | 0.00 | 0.00 | 67 | 1019.4 |
| 20260901183031 | 18 | 281 | 3.2 | 9.7 | 0.00 | 0.00 | 0.00 | 67 | 1019.3 |
| 20260901182529 | 18 | 286 | 4.8 | 9.7 | 0.00 | 0.00 | 0.00 | 67 | 1019.4 |
| 20260901182027 | 18 | 279 | 4.8 | 9.7 | 0.00 | 0.00 | 0.00 | 67 | 1019.2 |
| 20260901181525 | 18 | 291 | 4.8 | 9.7 | 0.00 | 0.00 | 0.00 | 67 | 1019.2 |
| 20260901181023 | 18 | 285 | 4.8 | 11.3 | 0.00 | 0.00 | 0.00 | 67 | 1019.2 |
| 20260901180522 | 18 | 280 | 4.8 | 14.5 | 0.00 | 0.00 | 0.00 | 67 | 1019.0 |
| 20260901180020 | 18 | 264 | 4.8 | 9.7 | 0.00 | 0.00 | 0.00 | 67 | 1019.0 |
| 20260901175518 | 18 | 270 | 4.8 | 12.9 | 0.00 | 0.00 | 0.00 | 67 | 1019.0 |
| 20260901175016 | 18 | 272 | 3.2 | 6.4 | 0.00 | 0.00 | 0.00 | 67 | 1019.0 |
| 20260901174534 | 18 | 266 | 3.2 | 6.4 | 0.00 | 0.00 | 0.00 | 67 | 1019.0 |
| 20260901174033 | 18 | 258 | 1.6 | 6.4 | 0.00 | 0.00 | 0.00 | 66 | 1018.8 |
| 20260901173530 | 18 | 277 | 3.2 | 6.4 | 0.00 | 0.00 | 0.00 | 66 | 1018.8 |
| 20260901173029 | 18 | 261 | 1.6 | 6.4 | 0.00 | 0.00 | 0.00 | 66 | 1018.8 |
| 20260901172527 | 18 | 270 | 1.6 | 4.8 | 0.00 | 0.00 | 0.00 | 66 | 1018.8 |
| 20260901172025 | 18 | 0.0 | 0.0 | 0.00 | 0.00 | 0.00 | 66 | 1018.8 | |
| 20260901171523 | 18 | 294 | 0.0 | 4.8 | 0.00 | 0.00 | 0.00 | 66 | 1018.7 |
| 20260901171021 | 18 | 279 | 3.2 | 6.4 | 0.00 | 0.00 | 0.00 | 66 | 1018.6 |
| 20260901170519 | 18 | 287 | 3.2 | 9.7 | 0.00 | 0.00 | 0.00 | 66 | 1018.6 |
| 20260901170049 | 19 | 290 | 3.2 | 9.7 | 0.00 | 0.00 | 0.00 | 66 | 1018.6 |
| 20260901170017 | 19 | 290 | 3.2 | 9.7 | 0.00 | 0.00 | 0.00 | 66 | 1018.6 |
| 20260901165535 | 19 | 286 | 3.2 | 9.7 | 0.00 | 0.00 | 0.00 | 65 | 1018.6 |
| 20260901165034 | 19 | 291 | 4.8 | 11.3 | 0.00 | 0.00 | 0.00 | 65 | 1018.6 |
| 20260901164532 | 19 | 289 | 4.8 | 12.9 | 0.00 | 0.00 | 0.00 | 65 | 1018.6 |
| 20260901164030 | 19 | 285 | 6.4 | 12.9 | 0.00 | 0.00 | 0.00 | 65 | 1018.5 |